Location: Izdebno
(52.6670°N, 16.2170°E)
Time: 10:37:47
(UTC+01:00)

Transit 2A - Pass Details

Date: 04 February 2023
Orbit: 591 x 964 km, 66.7° (Epoch: 21 March)

Event Time Altitude Azimuth Distance (km) Brightness Sun altitude
Rises 22:02:30 0° 309° (NW) 3,324 10.0 -45.8°
Reaches altitude 10° 22:05:24 10° 324° (NW) 2,458 9.2 -46.1°
Enters shadow 22:05:45 11° 327° (NNW) 2,366 9.0 -46.1°
Maximum altitude 22:09:53 23° 16° (NNE) 1,796 - -46.6°
Drops below altitude 10° 22:14:39 10° 67° (ENE) 2,628 - -47.1°
Sets 22:17:51 0° 82° (E) 3,610 - -47.4°
